Total_Precipitation_Accumulation
0.08 0.09 0.11 0.12 0.12 0.13 0.17 0.19 0.28 0.27 0.38 0.43 0.39 0.35 0.31 0.30 0.27 0.22 0.20 0.18 0.17 0.17 0.18 0.19 0.22 0.25 0.29 0.30 0.38 0.44 0.45 0.42 0.41 0.40 0.37 0.35 0.33 0.31 0.31 0.31 0.31 0.36 0.41 0.48
0.09 0.15 0.15 0.17 0.17 0.15 0.14 0.14 0.17 0.22 0.32 0.29 0.26 0.26 0.26 0.26 0.24 0.22 0.17 0.14 0.12 0.11 0.11 0.12 0.14 0.18 0.21 0.22 0.27 0.33 0.36 0.35 0.37 0.38 0.37 0.37 0.31 0.27 0.27 0.28 0.30 0.34 0.37 0.38
0.09 0.22 0.23 0.28 0.18 0.16 0.17 0.16 0.23 0.37 0.39 0.29 0.28 0.24 0.21 0.18 0.16 0.12 0.09 0.08 0.07 0.06 0.06 0.07 0.07 0.09 0.16 0.20 0.21 0.25 0.28 0.31 0.33 0.37 0.40 0.38 0.30 0.26 0.26 0.27 0.30 0.33 0.36 0.37
0.09 0.22 0.32 0.28 0.09 0.06 0.09 0.08 0.10 0.17 0.18 0.18 0.20 0.17 0.13 0.10 0.08 0.06 0.04 0.03 0.03 0.03 0.02 0.03 0.04 0.06 0.13 0.20 0.23 0.26 0.31 0.36 0.38 0.38 0.41 0.41 0.35 0.33 0.33 0.34 0.34 0.37 0.39 0.39
0.07 0.14 0.23 0.14 0.07 0.07 0.09 0.10 0.05 0.08 0.09 0.08 0.07 0.07 0.08 0.04 0.02 0.01 0.01 0.01 0.01 0.01 0.02 0.03 0.05 0.09 0.15 0.20 0.26 0.32 0.37 0.42 0.43 0.43 0.44 0.44 0.44 0.45 0.47 0.48 0.42 0.38 0.41 0.44
0.05 0.12 0.23 0.15 0.09 0.08 0.09 0.20 0.11 0.07 0.05 0.03 0.03 0.06 0.08 0.02 0.00 0.00 0.00 0.00 0.01 0.01 0.03 0.06 0.09 0.14 0.22 0.26 0.32 0.36 0.37 0.38 0.38 0.43 0.49 0.51 0.53 0.57 0.59 0.61 0.54 0.48 0.46 0.50
0.06 0.11 0.13 0.11 0.08 0.07 0.16 0.25 0.05 0.02 0.01 0.01 0.02 0.05 0.03 0.01 0.00 0.00 0.00 0.01 0.02 0.03 0.08 0.14 0.13 0.19 0.25 0.28 0.33 0.35 0.38 0.39 0.41 0.44 0.50 0.54 0.63 0.70 0.74 0.72 0.69 0.63 0.58 0.58
0.12 0.19 0.19 0.11 0.06 0.08 0.09 0.05 0.02 0.02 0.02 0.02 0.01 0.01 0.01 0.01 0.01 0.01 0.02 0.02 0.03 0.06 0.12 0.18 0.20 0.27 0.31 0.32 0.34 0.38 0.43 0.43 0.43 0.49 0.42 0.43 0.64 0.75 0.81 0.83 0.78 0.72 0.72 0.69
0.15 0.19 0.12 0.06 0.07 0.06 0.05 0.04 0.03 0.02 0.02 0.01 0.01 0.01 0.01 0.01 0.02 0.03 0.03 0.04 0.06 0.10 0.14 0.17 0.23 0.36 0.46 0.46 0.46 0.49 0.54 0.56 0.57 0.55 0.57 0.62 0.72 0.78 0.81 0.84 0.83 0.77 0.79 0.79
0.13 0.18 0.14 0.10 0.06 0.05 0.03 0.02 0.01 0.01 0.01 0.01 0.01 0.02 0.02 0.03 0.03 0.03 0.03 0.04 0.06 0.11 0.16 0.22 0.27 0.37 0.49 0.54 0.55 0.58 0.64 0.65 0.69 0.73 0.72 0.74 0.86 0.88 0.86 0.86 0.88 0.84 0.84 0.85
0.12 0.14 0.13 0.14 0.07 0.03 0.01 0.01 0.01 0.01 0.01 0.02 0.02 0.02 0.02 0.02 0.02 0.03 0.04 0.05 0.08 0.13 0.21 0.25 0.29 0.37 0.45 0.53 0.60 0.68 0.71 0.69 0.73 0.81 0.88 0.90 0.90 0.89 0.85 0.88 0.82 0.80 0.82 0.82
0.12 0.09 0.06 0.07 0.05 0.02 0.01 0.02 0.01 0.01 0.01 0.01 0.02 0.02 0.02 0.03 0.03 0.04 0.06 0.08 0.12 0.17 0.23 0.27 0.30 0.38 0.47 0.58 0.68 0.80 0.81 0.76 0.75 0.77 0.84 0.88 0.88 0.76 0.63 0.60 0.53 0.49 0.53 0.59
0.05 0.04 0.03 0.03 0.01 0.01 0.01 0.01 0.01 0.01 0.02 0.02 0.03 0.03 0.03 0.03 0.04 0.05 0.07 0.10 0.15 0.19 0.22 0.25 0.30 0.38 0.46 0.56 0.65 0.76 0.81 0.80 0.78 0.78 0.82 0.84 0.85 0.83 0.76 0.65 0.56 0.49 0.47 0.46
0.03 0.02 0.01 0.01 0.01 0.01 0.02 0.02 0.02 0.03 0.03 0.03 0.04 0.04 0.04 0.05 0.06 0.07 0.09 0.12 0.16 0.20 0.23 0.27 0.33 0.39 0.47 0.59 0.67 0.70 0.72 0.73 0.73 0.75 0.77 0.79 0.81 0.86 0.89 0.83 0.78 0.71 0.61 0.52
0.04 0.04 0.03 0.02 0.03 0.03 0.04 0.04 0.04 0.04 0.04 0.04 0.04 0.05 0.05 0.07 0.09 0.10 0.10 0.14 0.19 0.22 0.24 0.30 0.39 0.42 0.46 0.59 0.71 0.74 0.72 0.71 0.70 0.71 0.72 0.71 0.77 0.85 0.88 0.86 0.86 0.84 0.78 0.66
0.04 0.04 0.05 0.05 0.05 0.06 0.06 0.07 0.07 0.07 0.06 0.06 0.06 0.06 0.07 0.09 0.11 0.11 0.13 0.18 0.26 0.31 0.31 0.37 0.41 0.47 0.55 0.67 0.78 0.80 0.76 0.75 0.79 0.78 0.73 0.71 0.75 0.83 0.86 0.87 0.88 0.91 0.90 0.77
0.10 0.10 0.12 0.11 0.11 0.10 0.11 0.11 0.12 0.13 0.11 0.10 0.09 0.09 0.10 0.12 0.14 0.15 0.16 0.19 0.25 0.31 0.35 0.41 0.45 0.49 0.58 0.72 0.84 0.86 0.83 0.77 0.75 0.74 0.74 0.72 0.77 0.84 0.90 0.90 0.87 0.88 0.86 0.69
0.15 0.16 0.17 0.16 0.17 0.18 0.18 0.19 0.19 0.18 0.16 0.15 0.14 0.13 0.16 0.21 0.25 0.25 0.23 0.24 0.28 0.31 0.33 0.39 0.46 0.51 0.57 0.68 0.83 0.90 0.91 0.85 0.75 0.70 0.70 0.75 0.79 0.84 0.89 0.85 0.79 0.80 0.79 0.66
0.17 0.18 0.19 0.21 0.24 0.27 0.30 0.29 0.27 0.24 0.22 0.20 0.19 0.20 0.22 0.25 0.29 0.30 0.29 0.33 0.41 0.47 0.43 0.41 0.51 0.53 0.57 0.66 0.82 0.87 0.88 0.86 0.80 0.73 0.67 0.70 0.75 0.79 0.80 0.75 0.72 0.71 0.70 0.65
0.22 0.25 0.30 0.34 0.37 0.40 0.41 0.39 0.35 0.31 0.28 0.28 0.29 0.29 0.30 0.32 0.36 0.38 0.38 0.38 0.43 0.52 0.52 0.50 0.50 0.51 0.56 0.65 0.79 0.78 0.81 0.82 0.80 0.73 0.63 0.62 0.69 0.76 0.76 0.73 0.73 0.68 0.62 0.58
0.37 0.41 0.46 0.48 0.47 0.45 0.44 0.42 0.39 0.35 0.32 0.32 0.35 0.39 0.42 0.44 0.45 0.48 0.53 0.51 0.43 0.47 0.52 0.54 0.53 0.53 0.56 0.67 0.74 0.73 0.75 0.76 0.78 0.73 0.63 0.59 0.67 0.76 0.75 0.70 0.66 0.61 0.54 0.52
0.38 0.40 0.41 0.40 0.39 0.36 0.31 0.29 0.28 0.27 0.27 0.29 0.31 0.35 0.45 0.53 0.52 0.53 0.52 0.55 0.53 0.61 0.62 0.57 0.56 0.56 0.56 0.57 0.61 0.72 0.74 0.73 0.72 0.68 0.62 0.57 0.62 0.70 0.70 0.64 0.61 0.54 0.45 0.45
0.28 0.28 0.27 0.25 0.24 0.21 0.17 0.17 0.18 0.21 0.24 0.26 0.29 0.37 0.55 0.65 0.65 0.71 0.66 0.52 0.55 0.62 0.60 0.57 0.57 0.59 0.56 0.47 0.48 0.59 0.70 0.71 0.65 0.61 0.57 0.56 0.58 0.59 0.58 0.55 0.51 0.47 0.42 0.39
0.11 0.10 0.10 0.09 0.10 0.12 0.13 0.12 0.14 0.17 0.20 0.22 0.23 0.34 0.60 0.79 0.75 0.66 0.63 0.60 0.60 0.56 0.49 0.49 0.48 0.49 0.49 0.44 0.44 0.49 0.57 0.63 0.59 0.54 0.52 0.52 0.56 0.54 0.49 0.46 0.41 0.36 0.31 0.29
0.05 0.05 0.05 0.07 0.10 0.13 0.14 0.16 0.17 0.19 0.22 0.24 0.23 0.30 0.50 0.74 0.88 0.77 0.64 0.57 0.57 0.54 0.49 0.44 0.40 0.42 0.40 0.36 0.35 0.40 0.49 0.56 0.60 0.56 0.49 0.47 0.48 0.48 0.44 0.40 0.36 0.33 0.27 0.23
0.06 0.07 0.08 0.11 0.15 0.18 0.19 0.24 0.29 0.30 0.36 0.40 0.38 0.40 0.53 0.65 0.72 0.72 0.67 0.59 0.54 0.55 0.53 0.46 0.37 0.34 0.31 0.32 0.31 0.32 0.40 0.48 0.56 0.55 0.51 0.51 0.49 0.47 0.45 0.44 0.40 0.36 0.29 0.22
0.09 0.12 0.17 0.18 0.20 0.24 0.28 0.36 0.41 0.44 0.51 0.60 0.66 0.62 0.66 0.74 0.73 0.69 0.68 0.66 0.60 0.56 0.54 0.48 0.41 0.37 0.32 0.32 0.32 0.32 0.35 0.39 0.44 0.46 0.48 0.50 0.47 0.44 0.44 0.47 0.44 0.38 0.32 0.26